Dati Storici

Data ora Umidita' aria (%) Temperatura aria (°C) Rad globale (W/m²) Gonioanemometro (°) Tacoanemometro (m/s) Pioggia (mm)
27-10-2012 05:30 97.2 % 12.928 2.921 38.696 0.558 0
27-10-2012 05:20 97.1 % 12.901 2.874 104.162 0.766 1
27-10-2012 05:10 97.1 % 12.913 2.963 19.451 0.592 1
27-10-2012 05:00 97.1 % 12.896 3.04 30.383 0.45 1
27-10-2012 04:50 97.1 % 12.878 3.143 52.066 0.917 0
27-10-2012 04:40 97 % 12.859 2.898 8.976 0.503 0
27-10-2012 04:30 97 % 12.865 3.052 24.871 1.041 0
27-10-2012 04:20 97 % 12.875 3.027 -0.136 1.3 0
27-10-2012 04:10 97 % 12.856 2.988 23.608 0.656 0
27-10-2012 04:00 97 % 12.836 2.988 38.887 1.627 0
27-10-2012 03:50 97 % 12.803 3.052 50.947 1.324 0
27-10-2012 03:40 97 % 12.768 2.988 88.44 0.246 0
27-10-2012 03:30 97 % 12.73 2.962 55.474 2.08 0
27-10-2012 03:20 97 % 12.718 2.975 354.701 0.967 0
27-10-2012 03:10 97 % 12.688 3.001 43.217 1.19 0
27-10-2012 03:00 97 % 12.675 3.117 68.857 0.883 0
27-10-2012 02:50 96.9 % 12.622 2.927 35.286 2.493 0
27-10-2012 02:40 96.9 % 12.571 3.068 9.047 2.538 0
27-10-2012 02:30 96.8 % 12.538 2.927 57.32 1.51 0
27-10-2012 02:20 96.8 % 12.534 3.03 63.159 0.677 0

I dati sono presentati in modo automatico a scopo informativo. In seguito a verifica i dati possono subire modifiche o essere invalidati e non riportati negli archivi definitivi.